COOK73 ZUUU-RJOC

Flight info

Callsign COOK73
Flight time N/A
Altitude 35000
Route UBRAB9W UBRAB B213 ESPEG V154 SNF W269 OLPOV B213 WHA R343 PK A593 AKARA/K0830F350 A593 LAMEN/N0449F350 A593 SADLI Y590 BEDAR Y591 FUE V28 MARCO Y45 KYOKA
Aircraft C25C/M-SDE2E3FGHRWXY/LB1

Departure

Time N/A
Airport Chengdu Shuangliu International Airport (ZUUU)

Arrival

Time 2026-05-04 16:44
Airport Izumo Enmusubi Airport (RJOC)
Time Latitude Longitude Altitude Speed Heading
2026-05-04 13:43 31.05619 107.96321 35024 ft 484 kts 85°
2026-05-04 13:43 31.05684 108.00250 35023 ft 484 kts 85°
2026-05-04 13:43 31.05810 108.08048 35029 ft 484 kts 85°
2026-05-04 13:44 31.05931 108.15901 35029 ft 484 kts 85°
2026-05-04 13:44 31.06048 108.23748 35024 ft 484 kts 85°
2026-05-04 13:45 31.06160 108.31608 35022 ft 484 kts 85°
2026-05-04 13:45 31.06268 108.39471 35019 ft 485 kts 85°
2026-05-04 13:46 31.06369 108.47339 35020 ft 484 kts 85°
2026-05-04 13:46 31.06466 108.55143 35022 ft 484 kts 85°
2026-05-04 13:47 31.06560 108.62989 35027 ft 484 kts 85°
2026-05-04 13:47 31.06647 108.70830 35032 ft 483 kts 86°
2026-05-04 13:48 31.06731 108.78677 35039 ft 484 kts 86°
2026-05-04 13:48 31.06809 108.86522 35038 ft 483 kts 86°
2026-05-04 13:49 31.06882 108.94363 35046 ft 483 kts 86°
2026-05-04 13:49 31.06951 109.02203 35045 ft 483 kts 86°
2026-05-04 13:50 31.07015 109.10039 35049 ft 483 kts 86°
2026-05-04 13:50 31.07074 109.17873 35050 ft 483 kts 86°
2026-05-04 13:51 31.07131 109.25647 35044 ft 482 kts 86°
2026-05-04 13:51 31.07179 109.33467 35048 ft 482 kts 86°
2026-05-04 13:52 31.07246 109.45186 35048 ft 481 kts 86°
2026-05-04 13:53 31.07284 109.52972 35046 ft 480 kts 86°
2026-05-04 13:53 31.07316 109.60758 35044 ft 480 kts 87°
2026-05-04 13:54 31.06805 109.72347 35038 ft 484 kts 100°
2026-05-04 13:55 31.03828 109.83546 35049 ft 485 kts 108°
2026-05-04 13:55 31.00665 109.94743 35049 ft 485 kts 108°
2026-05-04 13:56 30.98546 110.02210 35048 ft 485 kts 108°
2026-05-04 13:57 30.95356 110.13418 35048 ft 486 kts 109°
2026-05-04 13:58 30.91106 110.28283 35055 ft 486 kts 108°
2026-05-04 13:58 30.87891 110.39484 35052 ft 486 kts 109°
2026-05-04 13:59 30.85745 110.46931 35053 ft 486 kts 109°
2026-05-04 14:00 30.82521 110.58095 35049 ft 485 kts 109°
2026-05-04 14:00 30.79304 110.69200 35048 ft 486 kts 109°
2026-05-04 14:01 30.77139 110.76641 35035 ft 486 kts 109°
2026-05-04 14:02 30.73887 110.87797 35077 ft 485 kts 109°
2026-05-04 14:02 30.71720 110.95195 35096 ft 482 kts 109°
2026-05-04 14:03 30.71286 110.96675 35102 ft 482 kts 109°
2026-05-04 14:03 30.69324 111.03374 35110 ft 479 kts 109°
2026-05-04 14:04 30.66104 111.14316 35115 ft 480 kts 110°
2026-05-04 14:04 30.63992 111.21678 35107 ft 481 kts 105°
2026-05-04 14:05 30.63113 111.29371 35102 ft 481 kts 89°
2026-05-04 14:05 30.63299 111.33244 35107 ft 480 kts 81°
2026-05-04 14:06 30.64312 111.40895 35110 ft 480 kts 79°
2026-05-04 14:06 30.65271 111.48567 35111 ft 481 kts 83°
2026-05-04 14:07 30.65659 111.56286 35116 ft 482 kts 84°
2026-05-04 14:07 30.66076 111.64065 35115 ft 483 kts 85°
2026-05-04 14:08 30.66462 111.71855 35116 ft 484 kts 85°
2026-05-04 14:08 30.66870 111.79659 35115 ft 484 kts 85°
2026-05-04 14:09 30.67455 111.91384 35117 ft 485 kts 85°
2026-05-04 14:10 30.68174 112.03051 35116 ft 485 kts 84°
2026-05-04 14:10 30.68698 112.10873 35117 ft 486 kts 84°
2026-05-04 14:11 30.69234 112.18699 35118 ft 486 kts 84°
2026-05-04 14:11 30.70019 112.30405 35114 ft 487 kts 84°
2026-05-04 14:12 30.70541 112.38248 35114 ft 487 kts 84°
2026-05-04 14:13 30.71313 112.50028 35116 ft 488 kts 84°
2026-05-04 14:13 30.71824 112.57894 35114 ft 488 kts 84°
2026-05-04 14:14 30.72329 112.65756 35115 ft 488 kts 84°
2026-05-04 14:14 30.73075 112.77514 35118 ft 489 kts 85°
2026-05-04 14:15 30.74060 112.93272 35119 ft 490 kts 85°
2026-05-04 14:16 30.74788 113.05130 35123 ft 490 kts 85°
2026-05-04 14:17 30.75418 113.16943 35122 ft 491 kts 88°
2026-05-04 14:18 30.75722 113.28848 35122 ft 491 kts 88°
2026-05-04 14:19 30.76120 113.44742 35123 ft 492 kts 88°
2026-05-04 14:19 30.76312 113.52641 35123 ft 492 kts 88°
2026-05-04 14:20 30.76500 113.60600 35120 ft 493 kts 88°
2026-05-04 14:20 30.76686 113.68569 35121 ft 493 kts 88°
2026-05-04 14:21 30.76951 113.80532 35121 ft 494 kts 88°
2026-05-04 14:21 30.77121 113.88513 35123 ft 494 kts 88°
2026-05-04 14:22 30.77288 113.96454 35126 ft 494 kts 88°
2026-05-04 14:22 30.77532 114.04440 35129 ft 495 kts 86°
2026-05-04 14:23 30.78120 114.16424 35131 ft 495 kts 85°
2026-05-04 14:24 30.79527 114.24215 35126 ft 492 kts 68°
2026-05-04 14:24 30.81900 114.31615 35131 ft 492 kts 66°
2026-05-04 14:25 30.84307 114.39064 35127 ft 492 kts 66°
2026-05-04 14:25 30.87914 114.50254 35125 ft 492 kts 66°
2026-05-04 14:26 30.90349 114.57706 35131 ft 493 kts 66°
2026-05-04 14:26 30.92762 114.65178 35125 ft 493 kts 66°
2026-05-04 14:27 30.95165 114.72599 35128 ft 493 kts 66°
2026-05-04 14:27 30.97578 114.80088 35138 ft 493 kts 66°
2026-05-04 14:28 30.99989 114.87580 35136 ft 494 kts 66°
2026-05-04 14:28 31.02398 114.95079 35140 ft 494 kts 66°
2026-05-04 14:29 31.07200 115.10095 35147 ft 494 kts 67°
2026-05-04 14:30 31.09580 115.17563 35147 ft 494 kts 67°
2026-05-04 14:31 31.13156 115.28860 35153 ft 495 kts 67°
2026-05-04 14:32 31.18013 115.43822 35164 ft 493 kts 67°
2026-05-04 14:32 31.20405 115.51260 35165 ft 493 kts 66°
2026-05-04 14:33 31.22827 115.58754 35162 ft 493 kts 66°
2026-05-04 14:33 31.25237 115.66269 35171 ft 494 kts 66°
2026-05-04 14:34 31.27652 115.73791 35169 ft 495 kts 66°
2026-05-04 14:34 31.30054 115.81304 35162 ft 493 kts 66°
2026-05-04 14:35 31.32430 115.88758 35169 ft 493 kts 66°
2026-05-04 14:35 31.34882 115.96247 35165 ft 493 kts 65°
2026-05-04 14:36 31.37324 116.03748 35151 ft 493 kts 66°
2026-05-04 14:36 31.39746 116.11202 35154 ft 493 kts 66°
2026-05-04 14:37 31.42176 116.18692 35146 ft 492 kts 66°
2026-05-04 14:37 31.44603 116.26194 35143 ft 493 kts 66°
2026-05-04 14:38 31.47028 116.33701 35139 ft 493 kts 66°
2026-05-04 14:38 31.49444 116.41208 35142 ft 493 kts 66°
2026-05-04 14:39 31.51859 116.48726 35129 ft 493 kts 66°
2026-05-04 14:39 31.54271 116.56247 35129 ft 493 kts 66°
2026-05-04 14:40 31.57860 116.67480 35127 ft 493 kts 66°
2026-05-04 14:40 31.60258 116.75002 35124 ft 492 kts 66°
2026-05-04 14:41 31.62651 116.82530 35119 ft 492 kts 66°
2026-05-04 14:42 31.67419 116.97585 35128 ft 492 kts 67°
2026-05-04 14:42 31.69787 117.05122 35131 ft 492 kts 67°
2026-05-04 14:43 31.72092 117.12633 35128 ft 492 kts 67°
2026-05-04 14:43 31.74431 117.20179 35127 ft 492 kts 67°
2026-05-04 14:44 31.76504 117.27840 35118 ft 494 kts 77°
2026-05-04 14:44 31.77092 117.35881 35113 ft 495 kts 92°
2026-05-04 14:45 31.76558 117.43939 35113 ft 495 kts 95°
2026-05-04 14:45 31.76003 117.51999 35113 ft 495 kts 96°
2026-05-04 14:46 31.75441 117.60006 35111 ft 495 kts 96°
2026-05-04 14:46 31.74876 117.68067 35117 ft 495 kts 96°
2026-05-04 14:47 31.74302 117.76123 35117 ft 495 kts 96°
2026-05-04 14:47 31.73726 117.84183 35122 ft 495 kts 96°
2026-05-04 14:48 31.73241 117.90881 35123 ft 495 kts 96°
2026-05-04 14:48 31.72557 118.00254 35124 ft 496 kts 96°
2026-05-04 14:49 31.72059 118.07018 35121 ft 496 kts 96°
2026-05-04 14:49 31.71477 118.15033 35118 ft 496 kts 96°
2026-05-04 14:50 31.70935 118.23113 35125 ft 496 kts 96°
2026-05-04 14:50 31.70360 118.31191 35125 ft 497 kts 96°
2026-05-04 14:51 31.69793 118.39269 35123 ft 497 kts 96°
2026-05-04 14:51 31.69218 118.47300 35126 ft 497 kts 96°
2026-05-04 14:52 31.68635 118.55388 35130 ft 497 kts 96°
2026-05-04 14:52 31.68049 118.63475 35133 ft 498 kts 96°
2026-05-04 14:53 31.67455 118.71574 35137 ft 498 kts 96°
2026-05-04 14:53 31.66857 118.79677 35140 ft 498 kts 96°
2026-05-04 14:54 31.66254 118.87728 35143 ft 498 kts 96°
2026-05-04 14:54 31.65646 118.95830 35144 ft 499 kts 96°
2026-05-04 14:55 31.65034 119.03937 35151 ft 499 kts 96°
2026-05-04 14:55 31.64630 119.12068 35145 ft 499 kts 94°
2026-05-04 14:56 31.64223 119.20207 35138 ft 500 kts 94°
2026-05-04 14:56 31.63888 119.28301 35139 ft 500 kts 94°
2026-05-04 14:57 31.63499 119.36445 35140 ft 500 kts 94°
2026-05-04 14:57 31.63127 119.44597 35139 ft 500 kts 94°
2026-05-04 14:58 31.62732 119.52748 35141 ft 500 kts 94°
2026-05-04 14:58 31.62341 119.60904 35139 ft 501 kts 95°
2026-05-04 14:59 31.61944 119.69006 35132 ft 501 kts 95°
2026-05-04 15:00 31.61396 119.81254 35137 ft 501 kts 94°
2026-05-04 15:00 31.61008 119.89426 35139 ft 501 kts 94°
2026-05-04 15:01 31.60429 120.01687 35141 ft 502 kts 95°
2026-05-04 15:01 31.60037 120.09804 35149 ft 502 kts 94°
2026-05-04 15:02 31.59639 120.17980 35150 ft 502 kts 95°
2026-05-04 15:02 31.59234 120.26156 35156 ft 502 kts 95°
2026-05-04 15:03 31.58208 120.34211 35159 ft 498 kts 109°
2026-05-04 15:03 31.55990 120.41871 35165 ft 496 kts 113°
2026-05-04 15:04 31.53732 120.49458 35167 ft 496 kts 114°
2026-05-04 15:04 31.51445 120.57090 35160 ft 496 kts 114°
2026-05-04 15:05 31.49157 120.64728 35159 ft 497 kts 114°
2026-05-04 15:05 31.46861 120.72367 35163 ft 497 kts 114°
2026-05-04 15:06 31.44562 120.80003 35166 ft 497 kts 114°
2026-05-04 15:07 31.41115 120.91408 35167 ft 498 kts 114°
2026-05-04 15:07 31.38801 120.99044 35169 ft 498 kts 114°
2026-05-04 15:08 31.36482 121.06683 35176 ft 498 kts 114°
2026-05-04 15:08 31.34152 121.14317 35183 ft 498 kts 115°
2026-05-04 15:09 31.31772 121.21927 35191 ft 498 kts 115°
2026-05-04 15:09 31.29410 121.29553 35195 ft 499 kts 115°
2026-05-04 15:10 31.26332 121.41230 35193 ft 502 kts 111°
2026-05-04 15:11 31.23443 121.52950 35193 ft 503 kts 111°
2026-05-04 15:11 31.21506 121.60804 35192 ft 503 kts 111°
2026-05-04 15:12 31.19564 121.68667 35193 ft 504 kts 111°
2026-05-04 15:12 31.18224 121.76741 35195 ft 511 kts 97°
2026-05-04 15:13 31.18523 121.85056 35196 ft 515 kts 81°
2026-05-04 15:13 31.20045 121.93230 35196 ft 515 kts 77°
2026-05-04 15:14 31.21587 122.01345 35198 ft 515 kts 77°
2026-05-04 15:14 31.23156 122.09512 35205 ft 515 kts 77°
2026-05-04 15:15 31.24707 122.17691 35207 ft 516 kts 77°
2026-05-04 15:15 31.26260 122.25872 35219 ft 516 kts 77°
2026-05-04 15:16 31.28576 122.38151 35221 ft 516 kts 77°
2026-05-04 15:17 31.30893 122.50375 35227 ft 516 kts 77°
2026-05-04 15:17 31.33255 122.62660 35229 ft 516 kts 77°
2026-05-04 15:18 31.34819 122.70849 35230 ft 516 kts 77°
2026-05-04 15:19 31.37172 122.83143 35235 ft 516 kts 77°
2026-05-04 15:19 31.39556 122.95373 35243 ft 516 kts 77°
2026-05-04 15:20 31.41140 123.03573 35243 ft 516 kts 77°
2026-05-04 15:20 31.42721 123.11777 35248 ft 517 kts 77°
2026-05-04 15:21 31.44294 123.19985 35251 ft 517 kts 77°
2026-05-04 15:22 31.46634 123.32246 35250 ft 517 kts 77°
2026-05-04 15:22 31.48976 123.44582 35255 ft 517 kts 77°
2026-05-04 15:23 31.50611 123.52791 35254 ft 517 kts 75°
2026-05-04 15:23 31.52437 123.60946 35256 ft 517 kts 75°
2026-05-04 15:24 31.56031 123.77272 34886 ft 527 kts 75°
2026-05-04 15:25 31.56946 123.81443 34574 ft 525 kts 75°
2026-05-04 15:25 31.57841 123.85548 34115 ft 514 kts 75°
2026-05-04 15:25 31.58725 123.89571 33584 ft 505 kts 75°
2026-05-04 15:26 31.60440 123.97421 32547 ft 489 kts 75°
2026-05-04 15:26 31.61275 124.01263 32040 ft 483 kts 75°
2026-05-04 15:26 31.62974 124.08795 31216 ft 475 kts 74°
2026-05-04 15:27 31.65523 124.20243 31170 ft 493 kts 74°
2026-05-04 15:28 31.68147 124.32037 31173 ft 502 kts 74°
2026-05-04 15:29 31.70792 124.44005 31175 ft 507 kts 75°
2026-05-04 15:30 31.76977 124.72208 31179 ft 512 kts 75°
2026-05-04 15:31 31.79627 124.84394 31180 ft 513 kts 75°
2026-05-04 15:32 31.82105 125.04959 31167 ft 510 kts 99°
2026-05-04 15:34 31.78869 125.25292 31170 ft 508 kts 105°
2026-05-04 15:34 31.76858 125.37508 31169 ft 507 kts 105°
2026-05-04 15:35 31.74834 125.49715 31160 ft 508 kts 105°
2026-05-04 15:36 31.72956 125.61908 31168 ft 512 kts 99°
2026-05-04 15:36 31.73139 125.70295 31169 ft 517 kts 84°
2026-05-04 15:37 31.74768 125.78536 31169 ft 519 kts 76°
2026-05-04 15:37 31.76582 125.86743 31170 ft 519 kts 76°
2026-05-04 15:38 31.78392 125.94954 31177 ft 519 kts 76°
2026-05-04 15:38 31.80180 126.03123 31174 ft 520 kts 76°
2026-05-04 15:39 31.81975 126.11349 31175 ft 520 kts 76°
2026-05-04 15:40 31.84660 126.23713 31174 ft 520 kts 77°
2026-05-04 15:40 31.86434 126.31914 31174 ft 521 kts 77°
2026-05-04 15:41 31.88216 126.40177 31174 ft 521 kts 77°
2026-05-04 15:41 31.89995 126.48454 31174 ft 522 kts 77°
2026-05-04 15:42 31.91823 126.56728 31173 ft 523 kts 76°
2026-05-04 15:42 31.93658 126.65015 31171 ft 523 kts 77°
2026-05-04 15:43 31.95462 126.73252 31168 ft 524 kts 76°
2026-05-04 15:43 31.97288 126.81563 31171 ft 524 kts 77°
2026-05-04 15:44 31.99100 126.89879 31171 ft 524 kts 77°
2026-05-04 15:44 32.00912 126.98196 31176 ft 524 kts 77°
2026-05-04 15:45 32.02704 127.06465 31175 ft 524 kts 77°
2026-05-04 15:45 32.04896 127.14658 31170 ft 525 kts 66°
2026-05-04 15:46 32.07870 127.22527 31169 ft 525 kts 65°
2026-05-04 15:46 32.08467 127.24102 31167 ft 526 kts 65°
2026-05-04 15:47 32.10732 127.30137 31166 ft 522 kts 65°
2026-05-04 15:47 32.13680 127.37972 31158 ft 524 kts 65°
2026-05-04 15:48 32.16633 127.45839 31159 ft 525 kts 65°
2026-05-04 15:48 32.21059 127.57685 31163 ft 526 kts 65°
2026-05-04 15:49 32.23991 127.65547 31167 ft 527 kts 65°
2026-05-04 15:49 32.26939 127.73473 31172 ft 527 kts 65°
2026-05-04 15:50 32.29846 127.81305 31174 ft 528 kts 66°
2026-05-04 15:50 32.32771 127.89202 31177 ft 528 kts 66°
2026-05-04 15:51 32.35711 127.97164 31174 ft 528 kts 66°
2026-05-04 15:51 32.38647 128.05131 31170 ft 529 kts 66°
2026-05-04 15:52 32.41580 128.13111 31172 ft 529 kts 66°
2026-05-04 15:52 32.44491 128.21048 31171 ft 529 kts 66°
2026-05-04 15:53 32.47415 128.29041 31171 ft 529 kts 66°
2026-05-04 15:53 32.50337 128.37044 31168 ft 529 kts 66°
2026-05-04 15:54 32.53254 128.45052 31165 ft 529 kts 66°
2026-05-04 15:54 32.56165 128.53064 31162 ft 529 kts 66°
2026-05-04 15:55 32.59050 128.61022 31168 ft 529 kts 66°
2026-05-04 15:55 32.61952 128.69047 31161 ft 530 kts 66°
2026-05-04 15:56 32.64849 128.77081 31160 ft 530 kts 66°
2026-05-04 15:56 32.68305 128.84769 31149 ft 527 kts 53°
2026-05-04 15:57 32.72764 128.91639 31149 ft 525 kts 49°
2026-05-04 15:57 32.77213 128.98437 31159 ft 524 kts 48°
2026-05-04 15:58 32.81697 129.05267 31157 ft 524 kts 49°
2026-05-04 15:58 32.86167 129.12113 31154 ft 524 kts 49°
2026-05-04 15:59 32.90638 129.18958 31153 ft 524 kts 49°
2026-05-04 15:59 32.95102 129.25817 31151 ft 524 kts 49°
2026-05-04 16:00 32.99537 129.32635 31149 ft 524 kts 49°
2026-05-04 16:00 33.03998 129.39509 31148 ft 524 kts 49°
2026-05-04 16:01 33.08458 129.46393 31147 ft 525 kts 49°
2026-05-04 16:01 33.12886 129.53240 31147 ft 525 kts 49°
2026-05-04 16:02 33.17336 129.60139 31141 ft 525 kts 49°
2026-05-04 16:03 33.24017 129.70510 31145 ft 526 kts 49°
2026-05-04 16:03 33.28471 129.77443 31133 ft 526 kts 49°
2026-05-04 16:04 33.32888 129.84336 31138 ft 525 kts 49°
2026-05-04 16:04 33.39560 129.94763 31133 ft 526 kts 49°
2026-05-04 16:05 33.44005 130.01729 31135 ft 527 kts 49°
2026-05-04 16:06 33.50654 130.12172 31132 ft 529 kts 49°
2026-05-04 16:07 33.59561 130.26210 31131 ft 529 kts 50°
2026-05-04 16:08 33.67914 130.40746 31120 ft 533 kts 64°
2026-05-04 16:09 33.74071 130.61661 31123 ft 533 kts 72°
2026-05-04 16:10 33.78834 130.78555 31108 ft 534 kts 72°
2026-05-04 16:11 33.83573 130.95455 31095 ft 535 kts 73°
2026-05-04 16:12 33.91184 131.20686 31095 ft 535 kts 71°
2026-05-04 16:13 33.95170 131.37772 31100 ft 531 kts 82°
2026-05-04 16:14 33.98110 131.55221 31111 ft 531 kts 82°
2026-05-04 16:16 34.01747 131.76998 31121 ft 532 kts 82°
2026-05-04 16:17 34.05403 131.98796 31124 ft 534 kts 78°
2026-05-04 16:18 34.10055 132.10983 31126 ft 536 kts 54°
2026-05-04 16:18 34.12316 132.14559 30808 ft 536 kts 46°
2026-05-04 16:19 34.20494 132.22807 28746 ft 489 kts 24°
2026-05-04 16:19 34.26341 132.26620 27546 ft 467 kts 21°
2026-05-04 16:20 34.34604 132.31991 25784 ft 448 kts 21°
2026-05-04 16:20 34.40030 132.35518 24615 ft 438 kts 22°
2026-05-04 16:21 34.47482 132.40348 22952 ft 422 kts 22°
2026-05-04 16:22 34.51862 132.43193 22018 ft 410 kts 22°
2026-05-04 16:22 34.59266 132.47999 20424 ft 396 kts 23°
2026-05-04 16:23 34.66422 132.52663 18883 ft 383 kts 23°
2026-05-04 16:24 34.75590 132.58648 16869 ft 367 kts 23°
2026-05-04 16:25 34.80057 132.61565 15912 ft 362 kts 23°
2026-05-04 16:26 34.88846 132.67324 14016 ft 356 kts 24°
2026-05-04 16:26 34.95090 132.71429 12534 ft 322 kts 23°
2026-05-04 16:27 34.98913 132.73936 11712 ft 304 kts 23°
2026-05-04 16:28 35.04378 132.77535 10536 ft 293 kts 22°
2026-05-04 16:28 35.09664 132.81017 9364 ft 285 kts 22°
2026-05-04 16:29 35.16526 132.85547 7876 ft 276 kts 23°
2026-05-04 16:30 35.21857 132.86947 6818 ft 260 kts
2026-05-04 16:31 35.25426 132.87354 6121 ft 255 kts 360°
2026-05-04 16:31 35.30713 132.87965 5111 ft 254 kts
2026-05-04 16:32 35.35975 132.88569 4091 ft 255 kts
2026-05-04 16:33 35.39525 132.88978 3422 ft 258 kts
2026-05-04 16:33 35.42831 132.90577 3034 ft 263 kts 39°
2026-05-04 16:34 35.45355 132.93681 3028 ft 256 kts 43°
2026-05-04 16:34 35.46608 132.95242 3026 ft 257 kts 42°
2026-05-04 16:35 35.50167 132.99611 3031 ft 228 kts 41°
2026-05-04 16:35 35.53527 133.03751 2913 ft 218 kts 43°
2026-05-04 16:36 35.54566 133.05036 3011 ft 208 kts 43°
2026-05-04 16:36 35.56063 133.07946 3009 ft 209 kts 84°
2026-05-04 16:37 35.54770 133.10902 3020 ft 212 kts 151°
2026-05-04 16:37 35.53338 133.11277 3019 ft 214 kts 186°
2026-05-04 16:37 35.51061 133.09178 2922 ft 220 kts 241°
2026-05-04 16:38 35.49580 133.06038 2601 ft 190 kts 240°
2026-05-04 16:39 35.47996 133.02755 2146 ft 120 kts 240°
2026-05-04 16:39 35.47226 133.01156 2001 ft 101 kts 240°
2026-05-04 16:40 35.46568 132.99791 1791 ft 88 kts 241°
2026-05-04 16:40 35.45960 132.98528 1766 ft 86 kts 240°
2026-05-04 16:41 35.45331 132.97221 1771 ft 92 kts 242°
2026-05-04 16:41 35.44355 132.95189 1784 ft 91 kts 240°
2026-05-04 16:42 35.43324 132.93060 882 ft 103 kts 238°
2026-05-04 16:43 35.42583 132.91505 314 ft 102 kts 234°
2026-05-04 16:43 35.41907 132.90091 41 ft 86 kts 239°
2026-05-04 16:43 35.41609 132.89457 22 ft 83 kts 234°
2026-05-04 16:44 35.41438 132.88811 13 ft 7 kts 329°
2026-05-04 16:45 35.41501 132.88791 13 ft 5 kts 358°